Content
SEND FEEDBACK

Daily
Averages
Monthly
Summary
Canada

VANCOUVER, BRITISH COLUMBIA


Home > North America > Canada > British Columbia
Elevation: 7 feet     Latitude: 49 11N     Longitude: 123 10W

WEATHER
 
SELECT A DAY
Number of Records: 249,307;   Date Range: 5/15/97 - 7/28/14
 
SHARE

PRINT THIS DATA

[ ← Previous Day ]
WEATHER ALMANAC - JULY 28, 2013
[ Next Day → ]
[ °C ]   °F
Weather ElementAverageHighLow
Temperature62.5 °F71.6 °F (6:15 pm)53.6 °F (2:55 am)
Dewpoint55.5 °F57.2 °F (6:35 am)50 °F (2:15 am)
Humidity78.3 %94 % (3:55 am)57 % (6:15 pm)
Barometer29.96 in29.99 in (7:35 am)29.91 in (6:55 pm)
Wind Speed4.9 mph12.7 mph (9:55 pm)
Wind Gust17.3 mph (9:55 pm)
Weather ElementAverage
Visibility10 mi
Wind DirectionSSW (201.8 °)

Weather ElementTotal
Precipitation---
Heating Degree Days2.4 (Base 65)
Growing Degree Days12.6 (Base 50)
Averaged from 71 records on July 28, 2013
WEATHER CONDITIONS BREAKOUT
WIND DIRECTION BREAKOUT
WEATHER BY HOUR - JULY 28, 2013
[ °C ]   °F
Local TimeTemperatureDewpointHumidityBarometerVisibilityWind DirectionWind SpeedGust SpeedPrecipitationEventsConditions
12:35 AM59.0 °F51.8 °F77 %29.98 in10.0 miCalmClear
12:55 AM57.2 °F53.6 °F88 %29.98 in10.0 miSouth (180°)4.6 mphClear
1:15 AM57.2 °F53.6 °F88 %29.98 in10.0 miCalmClear
1:35 AM57.2 °F53.6 °F88 %29.98 in10.0 miCalmClear
1:55 AM57.2 °F51.8 °F82 %29.98 in10.0 miCalmClear
2:15 AM55.4 °F50.0 °F82 %29.98 in10.0 miCalmClear
2:35 AM55.4 °F50.0 °F82 %29.98 in10.0 miCalmClear
2:55 AM53.6 °F50.0 °F88 %29.98 in10.0 miCalmClear
3:15 AM53.6 °F50.0 °F88 %29.98 in10.0 miCalmClear
3:35 AM53.6 °F50.0 °F88 %29.98 in10.0 miCalmClear
3:55 AM53.6 °F51.8 °F94 %29.98 in10.0 miCalmClear
4:15 AM53.6 °F51.8 °F94 %29.98 in10.0 miCalmClear
4:35 AM53.6 °F51.8 °F94 %29.98 in10.0 miCalmClear
4:55 AM57.2 °F53.6 °F88 %29.97 in10.0 miCalmClear
5:15 AM59.0 °F55.4 °F88 %29.98 in10.0 miNorth (350°)5.8 mphClear
5:35 AM59.0 °F55.4 °F88 %29.98 in10.0 miNNW (340°)4.6 mphClear
5:55 AM59.0 °F55.4 °F88 %29.98 in10.0 miCalmClear
6:15 AM59.0 °F55.4 °F88 %29.98 in10.0 miCalmClear
6:35 AM59.0 °F57.2 °F94 %29.98 in10.0 miNorth (350°)4.6 mphClear
6:55 AM60.8 °F57.2 °F88 %29.98 in10.0 miNNW (340°)4.6 mphClear
7:15 AM60.8 °F57.2 °F88 %29.98 in10.0 miCalmClear
7:35 AM60.8 °F57.2 °F88 %29.99 in10.0 miNNW (330°)3.5 mphClear
7:55 AM60.8 °F57.2 °F88 %29.99 in10.0 miNNW (330°)8.1 mphClear
8:15 AM62.6 °F57.2 °F82 %29.99 in10.0 miNNW (330°)4.6 mphMostly Cloudy
8:35 AM60.8 °F57.2 °F88 %29.99 in10.0 miNW (310°)3.5 mphOvercast
8:55 AM62.6 °F57.2 °F82 %29.99 in10.0 miNW (320°)4.6 mphPartly Cloudy
9:15 AM62.6 °F57.2 °F82 %29.99 in10.0 miNorth (350°)5.8 mphPartly Cloudy
9:35 AM62.6 °F57.2 °F82 %29.99 in10.0 miNW (320°)3.5 mphScattered Clouds
9:55 AM62.6 °F57.2 °F82 %29.99 in10.0 miNW (320°)4.6 mphScattered Clouds
10:15 AM62.6 °F57.2 °F82 %29.99 in10.0 miNorth (350°)5.8 mphClear
10:35 AM64.4 °F57.2 °F77 %29.99 in10.0 miNNW (330°)5.8 mphScattered Clouds
10:55 AM62.6 °F57.2 °F82 %29.99 in10.0 miNNW (340°)4.6 mphPartly Cloudy
11:15 AM64.4 °F57.2 °F77 %29.99 in10.0 miNNW (330°)4.6 mphClear
11:35 AM64.4 °F57.2 °F77 %29.99 in10.0 miNorth (360°)5.8 mphClear
11:55 AM64.4 °F57.2 °F77 %29.98 in10.0 miNorth (350°)5.8 mphClear
12:15 PM64.4 °F57.2 °F77 %29.98 in10.0 miNorth (350°)5.8 mphClear
12:35 PM64.4 °F57.2 °F77 %29.98 in10.0 miNorth (350°)5.8 mphClear
12:55 PM64.4 °F57.2 °F77 %29.98 in10.0 miNorth (350°)3.5 mphClear
1:15 PM64.4 °F57.2 °F77 %29.98 in10.0 miNorth (350°)5.8 mphClear
1:35 PM64.4 °F57.2 °F77 %29.98 in10.0 miNorth (350°)4.6 mphClear
1:55 PM64.4 °F57.2 °F77 %29.97 in10.0 miNorth (350°)4.6 mphClear
2:15 PM66.2 °F57.2 °F73 %29.97 in10.0 miNorth (360°)5.8 mphClear
2:35 PM66.2 °F57.2 °F73 %29.96 in10.0 miCalmClear
2:55 PM66.2 °F57.2 °F73 %29.96 in10.0 miNNE (30°)3.5 mphClear
3:15 PM69.8 °F55.4 °F60 %29.96 in10.0 miSW (220°)6.9 mphClear
3:35 PM69.8 °F55.4 °F60 %29.96 in10.0 miSSW (210°)8.1 mphClear
3:55 PM68.0 °F57.2 °F68 %29.95 in10.0 miWSW (250°)4.6 mphClear
4:15 PM66.2 °F57.2 °F73 %29.95 in10.0 miNNW (340°)3.5 mphClear
4:35 PM69.8 °F57.2 °F64 %29.94 in10.0 miWNW (290°)3.5 mphClear
4:55 PM66.2 °F57.2 °F73 %29.94 in10.0 miNorth (360°)5.8 mphClear
5:15 PM66.2 °F57.2 °F73 %29.94 in10.0 miNorth (360°)4.6 mphClear
5:35 PM66.2 °F57.2 °F73 %29.94 in10.0 miNorth (10°)3.5 mphClear
5:55 PM66.2 °F57.2 °F73 %29.93 in10.0 miWSW (240°)5.8 mphClear
6:15 PM71.6 °F55.4 °F57 %29.93 in10.0 miSouth (190°)9.2 mphClear
6:35 PM71.6 °F55.4 °F57 %29.92 in10.0 miSouth (190°)10.4 mphClear
6:55 PM69.8 °F55.4 °F60 %29.91 in10.0 miSSW (200°)11.5 mphClear
7:15 PM69.8 °F55.4 °F60 %29.92 in10.0 miSouth (180°)8.1 mphClear
7:35 PM68.0 °F55.4 °F64 %29.92 in10.0 miSouth (190°)9.2 mphClear
7:55 PM68.0 °F55.4 °F64 %29.92 in10.0 miSouth (190°)8.1 mphClear
8:15 PM68.0 °F55.4 °F64 %29.92 in10.0 miSouth (180°)8.1 mphClear
8:35 PM66.2 °F55.4 °F68 %29.92 in10.0 miSouth (190°)10.4 mphClear
8:55 PM64.4 °F55.4 °F73 %29.92 in10.0 miSouth (190°)8.1 mphClear
9:15 PM64.4 °F55.4 °F73 %29.93 in10.0 miSouth (190°)9.2 mphClear
9:35 PM64.4 °F55.4 °F73 %29.93 in10.0 miSouth (180°)10.4 mphClear
9:55 PM62.6 °F55.4 °F77 %29.93 in10.0 miSouth (190°)12.7 mph17.3 mphClear
10:15 PM62.6 °F55.4 °F77 %29.93 in10.0 miSouth (180°)11.5 mph17.3 mphClear
10:35 PM62.6 °F55.4 °F77 %29.94 in10.0 miSouth (170°)6.9 mphClear
10:55 PM60.8 °F55.4 °F82 %29.93 in10.0 miSouth (180°)8.1 mphClear
11:15 PM60.8 °F55.4 °F82 %29.94 in10.0 miSouth (180°)8.1 mphPartly Cloudy
11:35 PM60.8 °F55.4 °F82 %29.93 in10.0 miSouth (180°)10.4 mphPartly Cloudy
11:55 PM59.0 °F53.6 °F82 %29.93 in10.0 miSouth (180°)10.4 mph16.1 mphPartly Cloudy
Hourly data recorded from CZBB, located miles away from Vancouver, British Columbia







STORIES FROM OUR PARTNERS